This is the latest recevied weather packets stored in our database for station/object DL3NDS-WX. If no packets are shown the sender has not sent any weather packets the latest 10 day(s).
| Time | Temp. | Humidity | Pressure | Rain* | Wind** | Luminosity | Snow |
|---|---|---|---|---|---|---|---|
| 1788673970 | 8.89° C | 87% | 1028.1 hPa | 0 mm | - | 153 W/m² | - |
| 1788673909 | 8.89° C | 87% | 1028 hPa | 0 mm | - | 153 W/m² | - |
| 1788673847 | 8.89° C | 87% | 1027.9 hPa | 0 mm | - | 146 W/m² | - |
| 1788673787 | 8.89° C | 87% | 1028 hPa | 0 mm | - | 144 W/m² | - |
| 1788673730 | 8.89° C | 87% | 1028 hPa | 0 mm | - | 141 W/m² | - |
| 1788673665 | 8.89° C | 87% | 1027.9 hPa | 0 mm | - | 137 W/m² | - |
| 1788673604 | 8.89° C | 87% | 1028 hPa | 0 mm | - | 132 W/m² | - |
| 1788673576 | 8.89° C | 87% | 1028 hPa | 0 mm | - | 128 W/m² | - |
| 1788673492 | 8.89° C | 87% | 1027.9 hPa | 0 mm | - | 127 W/m² | - |
| 1788673418 | 8.89° C | 87% | 1027.9 hPa | 0 mm | - | 123 W/m² | - |
| 1788673359 | 8.89° C | 87% | 1027.9 hPa | 0 mm | - | 121 W/m² | - |
| 1788673295 | 8.89° C | 87% | 1027.9 hPa | 0 mm | - | 116 W/m² | - |
| 1788673234 | 8.89° C | 87% | 1027.9 hPa | 0 mm | - | 113 W/m² | - |
| 1788673179 | 8.89° C | 87% | 1027.9 hPa | 0 mm | - | 109 W/m² | - |
| 1788673114 | 8.89° C | 87% | 1027.9 hPa | 0 mm | - | 107 W/m² | - |
| 1788673051 | 8.33° C | 88% | 1027.9 hPa | 0 mm | - | 105 W/m² | - |
| 1788672985 | 8.33° C | 88% | 1027.9 hPa | 0 mm | - | 102 W/m² | - |
| 1788672923 | 8.33° C | 88% | 1027.9 hPa | 0 mm | - | 98 W/m² | - |
| 1788672862 | 8.33° C | 88% | 1027.8 hPa | 0 mm | - | 98 W/m² | - |
| 1788672800 | 8.33° C | 88% | 1027.8 hPa | 0 mm | - | 97 W/m² | - |
| 1788672739 | 8.33° C | 88% | 1028 hPa | 0 mm | - | 93 W/m² | - |
| 1788672681 | 8.33° C | 88% | 1027.8 hPa | 0 mm | - | 91 W/m² | - |
| 1788672619 | 8.33° C | 88% | 1027.8 hPa | 0 mm | - | 88 W/m² | - |
| 1788672551 | 8.33° C | 89% | 1027.8 hPa | 0 mm | - | 86 W/m² | - |
| 1788672495 | 8.33° C | 89% | 1027.8 hPa | 0 mm | - | 84 W/m² | - |
* Rain latest hour (hover to see other rain measurements)
** Current wind speed in m/s (hover to see current wind gust speed)